• In Russia
  • List of Countries
  • For 7 days
  • Water Temperature
  • Satellite Maps
  • Weather Map
  • Weather Widgets
  • user-avatar
    Login

    Hourly Weather Kitzbuhel

    Today, 22 January, Sunday

    Time Temperature Precipitation Wind Pressure Humidity
    00:00 -10°C° 0 mm 2 mps 680 mmHg 84%
    01:00 -10°C° 0 mm 2 mps 680 mmHg 85%
    02:00 -10°C° 0 mm 2 mps 680 mmHg 85%
    03:00 -10°C° 0 mm 2 mps 680 mmHg 84%
    04:00 -10°C° 0 mm 2 mps 679 mmHg 84%
    05:00 -10°C° 0 mm 2 mps 679 mmHg 84%
    06:00 -10°C° 0 mm 2 mps 679 mmHg 84%
    07:00 -10°C° 0 mm 2 mps 679 mmHg 84%
    08:00 -8°C° 0 mm 2 mps 680 mmHg 84%
    09:00 -6°C° 0 mm 2 mps 680 mmHg 85%
    10:00 -4°C° 0 mm 2 mps 680 mmHg 85%
    11:00 -3°C° 0 mm 2 mps 680 mmHg 88%
    12:00 -2°C° 0 mm 2 mps 680 mmHg 90%
    13:00 +1°C° 0 mm 2 mps 680 mmHg 93%
    14:00 -1°C° 0 mm 2 mps 680 mmHg 92%
    15:00 -2°C° 0 mm 2 mps 679 mmHg 92%
    16:00 -3°C° 0 mm 2 mps 679 mmHg 91%
    17:00 -5°C° 0 mm 2 mps 679 mmHg 90%
    18:00 -7°C° 0 mm 2 mps 678 mmHg 89%
    19:00 -9°C° 0 mm 2 mps 678 mmHg 89%
    20:00 -9°C° 0 mm 2 mps 678 mmHg 88%
    21:00 -9°C° 0 mm 2 mps 678 mmHg 87%
    22:00 -9°C° 0 mm 2 mps 678 mmHg 86%
    23:00 -10°C° 0 mm 2 mps 678 mmHg 85%

    Tomorrow, 23 January, Monday

    Time Temperature Precipitation Wind Pressure Humidity
    00:00 -10°C° 0 mm 2 mps 677 mmHg 85%
    01:00 -10°C° 0 mm 2 mps 677 mmHg 85%
    02:00 -10°C° 0 mm 2 mps 677 mmHg 84%
    03:00 -10°C° 0 mm 2 mps 677 mmHg 83%
    04:00 -12°C° 0 mm 2 mps 676 mmHg 82%
    05:00 -12°C° 0 mm 2 mps 676 mmHg 82%
    06:00 -12°C° 0 mm 2 mps 676 mmHg 81%
    07:00 -13°C° 0 mm 2 mps 676 mmHg 80%
    08:00 -8°C° 0 mm 1 mps 676 mmHg 81%
    09:00 -6°C° 0 mm 1 mps 677 mmHg 82%
    10:00 -3°C° 0 mm 1 mps 678 mmHg 83%
    11:00 -1°C° 0 mm 1 mps 678 mmHg 85%
    12:00 0°C° 0 mm 1 mps 677 mmHg 88%
    13:00 +1°C° 0 mm 0 mps 677 mmHg 90%
    14:00 -2°C° 0 mm 0 mps 676 mmHg 91%
    15:00 -5°C° 0 mm 0 mps 675 mmHg 92%
    16:00 -8°C° 0 mm 0 mps 674 mmHg 92%
    17:00 -11°C° 0 mm 0 mps 673 mmHg 95%
    18:00 -15°C° 0 mm 0 mps 672 mmHg 97%
    19:00 -18°C° 0 mm 0 mps 671 mmHg 99%
    20:00 -18°C° 0 mm 0 mps 671 mmHg 98%
    21:00 -18°C° 0 mm 0 mps 672 mmHg 97%
    22:00 -18°C° 0 mm 0 mps 672 mmHg 96%
    23:00 -18°C° 0 mm 0 mps 672 mmHg 95%

    Day after tomorrow, 24 January, Tuesday

    Time Temperature Precipitation Wind Pressure Humidity
    00:00 -17°C° 0 mm 0 mps 672 mmHg 94%
    01:00 -17°C° 0 mm 0 mps 672 mmHg 93%
    02:00 -17°C° 0 mm 0 mps 672 mmHg 93%
    03:00 -16°C° 0 mm 0 mps 673 mmHg 92%
    04:00 -16°C° 0 mm 1 mps 673 mmHg 92%
    05:00 -16°C° 0 mm 1 mps 673 mmHg 93%
    06:00 -16°C° 0 mm 1 mps 673 mmHg 93%
    07:00 -16°C° 0 mm 1 mps 673 mmHg 94%
    08:00 -12°C° 0 mm 1 mps 675 mmHg 92%
    09:00 -9°C° 0 mm 1 mps 676 mmHg 90%
    10:00 -4°C° 0 mm 1 mps 678 mmHg 88%
    11:00 -3°C° 0 mm 1 mps 678 mmHg 89%
    12:00 -2°C° 0 mm 1 mps 677 mmHg 90%
    13:00 0°C° 0 mm 1 mps 677 mmHg 90%
    14:00 -2°C° 0 mm 1 mps 677 mmHg 93%
    15:00 -3°C° 0 mm 1 mps 677 mmHg 95%
    16:00 -4°C° 0 mm 1 mps 677 mmHg 97%
    17:00 -8°C° 0 mm 1 mps 677 mmHg 98%
    18:00 -10°C° 0 mm 1 mps 676 mmHg 98%
    19:00 -12°C° 0 mm 1 mps 676 mmHg 99%
    20:00 -13°C° 0 mm 1 mps 676 mmHg 98%
    21:00 -14°C° 0 mm 1 mps 676 mmHg 98%
    22:00 -14°C° 0 mm 1 mps 676 mmHg 97%
    23:00 -15°C° 0 mm 1 mps 676 mmHg 96%

    25 January, Wednesday

    Time Temperature Precipitation Wind Pressure Humidity
    00:00 -15°C° 0 mm 1 mps 676 mmHg 96%
    01:00 -16°C° 0 mm 1 mps 676 mmHg 95%
    02:00 -17°C° 0 mm 1 mps 675 mmHg 95%
    03:00 -17°C° 0 mm 1 mps 675 mmHg 94%
    04:00 -18°C° 0 mm 1 mps 675 mmHg 94%
    05:00 -18°C° 0 mm 1 mps 675 mmHg 93%
    06:00 -18°C° 0 mm 1 mps 675 mmHg 92%
    07:00 -18°C° 0 mm 1 mps 675 mmHg 91%
    08:00 -13°C° 0 mm 1 mps 677 mmHg 89%
    09:00 -8°C° 0 mm 1 mps 679 mmHg 86%
    10:00 -3°C° 0 mm 1 mps 680 mmHg 83%
    11:00 -2°C° 0 mm 1 mps 680 mmHg 85%
    12:00 0°C° 0 mm 1 mps 680 mmHg 87%
    13:00 +1°C° 0 mm 1 mps 680 mmHg 89%
    14:00 -1°C° 0 mm 1 mps 680 mmHg 91%
    15:00 -2°C° 0 mm 1 mps 680 mmHg 93%
    16:00 -4°C° 0 mm 1 mps 679 mmHg 94%
    17:00 -8°C° 0 mm 1 mps 678 mmHg 95%
    18:00 -11°C° 0 mm 1 mps 678 mmHg 96%
    19:00 -14°C° 0 mm 1 mps 677 mmHg 97%
    20:00 -13°C° 0 mm 1 mps 678 mmHg 94%
    21:00 -12°C° 0 mm 1 mps 678 mmHg 90%
    22:00 -11°C° 0 mm 1 mps 679 mmHg 87%
    23:00 -11°C° 0 mm 1 mps 679 mmHg 85%

    26 January, Thursday

    Time Temperature Precipitation Wind Pressure Humidity
    00:00 -11°C° 0 mm 1 mps 679 mmHg 84%
    01:00 -10°C° 0 mm 1 mps 679 mmHg 82%
    02:00 -10°C° 0 mm 1 mps 679 mmHg 81%
    03:00 -10°C° 0 mm 1 mps 680 mmHg 80%
    04:00 -10°C° 0 mm 1 mps 680 mmHg 79%
    05:00 -10°C° 0 mm 1 mps 680 mmHg 78%
    06:00 -10°C° 0 mm 1 mps 680 mmHg 77%
    07:00 -10°C° 0 mm 1 mps 680 mmHg 77%
    08:00 -7°C° 0 mm 1 mps 681 mmHg 78%
    09:00 -3°C° 0 mm 1 mps 682 mmHg 80%
    10:00 -1°C° 0 mm 1 mps 683 mmHg 82%
    11:00 +1°C° 0 mm 1 mps 683 mmHg 86%
    12:00 +2°C° 0 mm 1 mps 683 mmHg 90%
    13:00 +3°C° 0 mm 1 mps 682 mmHg 94%
    14:00 +2°C° 0 mm 1 mps 682 mmHg 92%
    15:00 0°C° 0 mm 1 mps 682 mmHg 90%
    16:00 -1°C° 0 mm 1 mps 681 mmHg 89%
    17:00 -3°C° 0 mm 1 mps 681 mmHg 87%
    18:00 -4°C° 0 mm 1 mps 681 mmHg 85%
    19:00 -7°C° 0 mm 1 mps 681 mmHg 84%
    20:00 -7°C° 0 mm 2 mps 681 mmHg 83%
    21:00 -7°C° 0 mm 2 mps 682 mmHg 82%
    22:00 -7°C° 0 mm 2 mps 682 mmHg 80%
    23:00 -7°C° 0 mm 2 mps 682 mmHg 80%

    27 January, Friday

    Time Temperature Precipitation Wind Pressure Humidity
    00:00 -7°C° 0 mm 2 mps 682 mmHg 80%
    01:00 -7°C° 0 mm 2 mps 682 mmHg 79%
    02:00 -7°C° 0 mm 2 mps 682 mmHg 80%
    03:00 -7°C° 0 mm 2 mps 682 mmHg 80%
    04:00 -7°C° 0 mm 2 mps 681 mmHg 80%
    05:00 -7°C° 0 mm 2 mps 681 mmHg 80%
    06:00 -7°C° 0 mm 2 mps 681 mmHg 80%
    07:00 -7°C° 0 mm 2 mps 681 mmHg 80%
    08:00 -3°C° 0 mm 1 mps 682 mmHg 81%
    09:00 -1°C° 0 mm 1 mps 683 mmHg 83%
    10:00 +1°C° 0 mm 1 mps 684 mmHg 84%
    11:00 +2°C° 0 mm 1 mps 684 mmHg 88%
    12:00 +3°C° 0 mm 1 mps 684 mmHg 93%
    13:00 +4°C° 0 mm 1 mps 684 mmHg 97%
    14:00 +1°C° 0 mm 0 mps 683 mmHg 93%
    15:00 0°C° 0 mm 0 mps 683 mmHg 90%
    16:00 -2°C° 0 mm 0 mps 682 mmHg 86%
    17:00 -5°C° 0 mm 0 mps 681 mmHg 88%
    18:00 -8°C° 0 mm 0 mps 680 mmHg 90%
    19:00 -11°C° 0 mm 0 mps 680 mmHg 92%
    20:00 -11°C° 0 mm 0 mps 680 mmHg 90%
    21:00 -10°C° 0 mm 1 mps 680 mmHg 88%
    22:00 -10°C° 0 mm 1 mps 680 mmHg 86%
    23:00 -10°C° 0 mm 1 mps 680 mmHg 86%
    Show more